This is the latest recevied weather packets stored in our database for station/object IU0KRR-10. If no packets are shown the sender has not sent any weather packets the latest 10 day(s).
| Time | Temp. | Humidity | Pressure | Rain* | Wind** | Luminosity | Snow |
|---|---|---|---|---|---|---|---|
| 1777933734 | 21.67° C | 29% | 874.2 hPa | - | - | - | - |
| 1777932834 | 22.22° C | 29% | 874.2 hPa | - | - | - | - |
| 1777931933 | 22.78° C | 30% | 874.3 hPa | - | - | - | - |
| 1777931033 | 22.78° C | 29% | 874.3 hPa | - | - | - | - |
| 1777930133 | 23.33° C | 28% | 874.4 hPa | - | - | - | - |
| 1777929233 | 23.33° C | 27% | 874.5 hPa | - | - | - | - |
| 1777928332 | 23.33° C | 27% | 874.7 hPa | - | - | - | - |
| 1777927432 | 23.33° C | 28% | 874.7 hPa | - | - | - | - |
| 1777926532 | 23.89° C | 27% | 874.6 hPa | - | - | - | - |
| 1777925632 | 23.89° C | 27% | 874.7 hPa | - | - | - | - |
| 1777924731 | 23.89° C | 28% | 874.8 hPa | - | - | - | - |
| 1777923831 | 23.33° C | 28% | 874.7 hPa | - | - | - | - |
| 1777922931 | 23.89° C | 28% | 874.5 hPa | - | - | - | - |
| 1777922031 | 23.33° C | 29% | 874.6 hPa | - | - | - | - |
| 1777921131 | 23.33° C | 29% | 874.4 hPa | - | - | - | - |
| 1777920231 | 23.89° C | 29% | 874.4 hPa | - | - | - | - |
| 1777919331 | 24.44° C | 29% | 874.5 hPa | - | - | - | - |
| 1777918431 | 25° C | 28% | 874.4 hPa | - | - | - | - |
| 1777917531 | 25.56° C | 26% | 874.4 hPa | - | - | - | - |
| 1777916631 | 26.11° C | 26% | 874.3 hPa | - | - | - | - |
| 1777915730 | 26.11° C | 24% | 874.5 hPa | - | - | - | - |
| 1777914830 | 26.11° C | 23% | 874.3 hPa | - | - | - | - |
| 1777913930 | 26.67° C | 23% | 874.4 hPa | - | - | - | - |
| 1777913030 | 27.22° C | 22% | 874.6 hPa | - | - | - | - |
| 1777912129 | 27.22° C | 22% | 874.6 hPa | - | - | - | - |
* Rain since midnight (hover to see other rain measurements)
** Current wind speed in m/s (hover to see current wind gust speed)